Albuquerque Double Eagle, NM

9:55 AM MST on November 22, 2017 (GMT -0700)
Double Eagle Ii

Weather History for KAEG - January, 2014

Change the Weather History Date:

Sunday, January 5, 2014

  Actual Average (KABQ) Record (KABQ)
Temperature  
Mean Temperature 21 °F -  
Max Temperature 35 °F 44 °F 69 °F (1994)
Min Temperature 7 °F 20 °F -15 °F (1971)
Degree Days  
Heating Degree Days 44    
Moisture  
Dew Point -4 °F    
Average Humidity 37    
Maximum Humidity 62    
Minimum Humidity 15    
Precipitation  
Precipitation 0.00 in - - ()
Sea Level Pressure  
Sea Level Pressure 30.16 in    
Wind  
Wind Speed 8 mph (NW)    
Max Wind Speed 29 mph    
Max Gust Speed 36 mph    
Visibility 10 miles    
Events      
Averages and records for this station are not official NWS values.
T = Trace of Precipitation, MM = Missing Value Source: NWS Daily Summary

Daily Weather History Graph

Daily Weather History Graph

Search for Another Location

Airport or City:

Trip Planner

Search our weather history database for the weather conditions in past years. The results will help you decide how hot, cold, wet, or windy it might be!

Date:

Astronomy

Jan. 05, 2014 Rise Set
Actual Time 7:16 AM MST 5:09 PM MST
Civil Twilight 6:48 AM MST 5:37 PM MST
Nautical Twilight 6:16 AM MST 6:08 PM MST
Astronomical Twilight 5:45 AM MST 6:39 PM MST
Moon 10:11 AM MST (1/5) 10:27 PM MST (1/5)
Length of Visible Light 10h 49m
Length of Day
9h 53m
Waxing Crescent, 25% of the Moon is Illuminated
Jan 5
Waxing Crescent
Jan 7
First Quarter
Jan 15
Full
Jan 23
Last Quarter
Jan 30
New

Hourly Weather History & Observations

Time (MST) Temp. Windchill Dew Point Humidity Pressure Visibility Wind Dir Wind Speed Gust Speed Precip Events Conditions
12:15 AM 25.0 °F 19.3 °F -2.2 °F 31% 30.05 in 10.0 mi East 4.6 mph - N/A   Clear
12:35 AM 22.8 °F 14.5 °F -1.7 °F 34% 30.06 in 10.0 mi NNW 6.9 mph - N/A   Clear
12:55 AM 21.9 °F 14.5 °F -1.3 °F 36% 30.06 in 10.0 mi NNW 5.8 mph - N/A   Clear
1:15 AM 22.1 °F 12.0 °F -1.1 °F 36% 30.06 in 10.0 mi North 9.2 mph - N/A   Clear
1:35 AM 19.0 °F 13.9 °F -1.5 °F 41% 30.06 in 10.0 mi West 3.5 mph - N/A   Clear
1:55 AM 19.6 °F 9.7 °F -1.1 °F 40% 30.08 in 10.0 mi WNW 8.1 mph - N/A   Clear
2:15 AM 20.1 °F 8.1 °F -0.2 °F 41% 30.07 in 10.0 mi NW 11.5 mph - N/A   Clear
2:35 AM 17.1 °F 5.8 °F -0.8 °F 46% 30.08 in 10.0 mi NW 9.2 mph - N/A   Clear
2:55 AM 13.5 °F - -1.8 °F 51% 30.09 in 10.0 mi Calm Calm - N/A   Clear
3:15 AM 14.0 °F 8.2 °F -1.5 °F 50% 30.09 in 10.0 mi South 3.5 mph - N/A   Clear
3:35 AM 14.9 °F 7.5 °F -1.8 °F 48% 30.09 in 10.0 mi SW 4.6 mph - N/A   Clear
3:55 AM 13.6 °F 7.7 °F -1.7 °F 51% 30.09 in 10.0 mi SW 3.5 mph - N/A   Clear
4:15 AM 7.9 °F -0.7 °F -3.8 °F 59% 30.09 in 10.0 mi West 4.6 mph - N/A   Clear
4:35 AM 9.0 °F -0.9 °F -2.9 °F 59% 30.10 in 10.0 mi West 5.8 mph - N/A   Clear
5:50 AM 10.4 °F - -2.2 °F 57% 30.10 in 10.0 mi Calm Calm - N/A   Clear
6:50 AM 10.4 °F - -0.4 °F 62% 30.13 in 10.0 mi Calm Calm - N/A   Clear
7:50 AM 17.6 °F 9.3 °F 1.4 °F 49% 30.16 in 10.0 mi WNW 5.8 mph - N/A   Clear
8:50 AM 24.8 °F 17.9 °F 1.4 °F 36% 30.19 in 10.0 mi West 5.8 mph - N/A   Clear
9:50 AM 26.6 °F 14.7 °F -0.4 °F 31% 30.20 in 10.0 mi NW 15.0 mph - N/A   Clear
10:50 AM 30.2 °F 18.5 °F -2.2 °F 25% 30.20 in 10.0 mi WNW 17.3 mph 23.0 mph N/A   Clear
11:50 AM 30.2 °F 15.4 °F -4.0 °F 23% 30.16 in 10.0 mi WNW 28.8 mph 34.5 mph N/A   Clear
12:50 PM 30.2 °F 15.9 °F -5.8 °F 21% 30.14 in 10.0 mi NW 26.5 mph 34.5 mph N/A   Clear
1:49 PM 35.6 °F 24.5 °F -7.6 °F 16% 30.13 in 10.0 mi NW 20.7 mph 28.8 mph N/A   Clear
1:50 PM 35.6 °F 23.0 °F -7.6 °F 16% 30.12 in 10.0 mi NW 27.6 mph 35.7 mph N/A   Clear
3:54 PM 33.8 °F 23.2 °F -7.6 °F 17% 30.15 in 10.0 mi NW 17.3 mph 23.0 mph N/A   Partly Cloudy
4:48 PM 32.0 °F 21.6 °F -11.2 °F 15% 30.16 in 10.0 mi NW 15.0 mph - N/A   Partly Cloudy
5:50 PM 26.6 °F 14.3 °F -9.4 °F 21% 30.19 in 10.0 mi NW 16.1 mph - N/A   Clear
6:53 PM 23.0 °F 13.1 °F -7.6 °F 26% 30.21 in 10.0 mi North 9.2 mph - N/A   Clear
7:48 PM 17.6 °F 6.4 °F -7.6 °F 32% 30.23 in 10.0 mi NNE 9.2 mph - N/A   Clear
8:48 PM 17.6 °F 6.4 °F -5.8 °F 35% 30.26 in 10.0 mi North 9.2 mph - N/A   Clear
9:15 PM 17.2 °F 6.0 °F -5.4 °F 36% 30.26 in 10.0 mi North 9.2 mph - N/A   Clear
9:35 PM 16.3 °F 4.9 °F -5.6 °F 38% 30.26 in 10.0 mi North 9.2 mph - N/A   Clear
9:48 PM 17.6 °F 8.2 °F -5.8 °F 35% 30.27 in 10.0 mi North 6.9 mph - N/A   Clear
9:55 PM 17.1 °F 6.6 °F -4.7 °F 38% 30.27 in 10.0 mi North 8.1 mph - N/A   Clear
10:15 PM 15.4 °F 8.1 °F -6.0 °F 38% 30.28 in 10.0 mi NNE 4.6 mph - N/A   Clear
10:35 PM 12.9 °F 6.9 °F -6.2 °F 42% 30.29 in 10.0 mi North 3.5 mph - N/A   Clear
10:55 PM 14.5 °F 1.9 °F -5.1 °F 42% 30.28 in 10.0 mi North 10.4 mph - N/A   Clear
11:15 PM 16.2 °F 9.0 °F -4.2 °F 41% 30.28 in 10.0 mi North 4.6 mph - N/A   Clear
11:35 PM 15.6 °F - -4.2 °F 41% 30.29 in 10.0 mi Calm Calm - N/A   Clear
11:55 PM 18.3 °F 13.1 °F -3.3 °F 39% 30.29 in 10.0 mi NNE 3.5 mph - N/A   Clear